Precipitable_Water
1.33 1.33 1.33 1.36 1.40 1.38 1.26 1.28 1.28 1.24 1.22 1.13 1.31 1.37 1.44 1.50 1.52 1.43 1.39 1.34 1.23 1.15 1.18 1.09 1.13 1.17 1.14 1.15 1.22 1.17 1.13 1.15 1.03 1.09 1.19 1.29 1.29 1.33 1.36 1.44 1.45 1.44 1.44
1.34 1.36 1.31 1.36 1.40 1.36 1.24 1.25 1.31 1.28 1.18 1.14 1.24 1.35 1.41 1.49 1.48 1.39 1.32 1.36 1.33 1.18 1.15 1.14 1.09 1.24 1.23 1.21 1.16 1.13 1.13 1.17 1.11 1.05 1.13 1.21 1.25 1.30 1.34 1.32 1.39 1.46 1.45
1.35 1.37 1.31 1.30 1.36 1.35 1.28 1.23 1.27 1.30 1.17 1.11 1.23 1.27 1.35 1.41 1.43 1.42 1.42 1.40 1.41 1.41 1.33 1.24 1.18 1.24 1.30 1.33 1.22 1.16 1.15 1.15 1.13 1.06 1.08 1.21 1.28 1.30 1.24 1.29 1.32 1.35 1.42
1.38 1.36 1.30 1.26 1.28 1.34 1.32 1.22 1.17 1.26 1.20 1.08 1.19 1.23 1.31 1.36 1.40 1.40 1.40 1.41 1.43 1.44 1.44 1.41 1.38 1.35 1.36 1.35 1.31 1.23 1.20 1.14 1.13 1.14 1.14 1.19 1.24 1.27 1.24 1.17 1.20 1.28 1.28
1.34 1.31 1.21 1.29 1.35 1.31 1.30 1.24 1.12 1.20 1.18 1.14 1.17 1.24 1.30 1.35 1.35 1.36 1.41 1.41 1.41 1.43 1.47 1.49 1.53 1.59 1.56 1.43 1.37 1.30 1.26 1.18 1.13 1.10 1.15 1.17 1.17 1.12 1.10 1.21 1.17 1.26 1.27
1.34 1.21 1.30 1.33 1.37 1.30 1.27 1.23 1.10 1.09 1.22 1.21 1.14 1.17 1.25 1.29 1.34 1.37 1.40 1.40 1.42 1.43 1.43 1.49 1.59 1.70 1.66 1.53 1.42 1.38 1.31 1.20 1.14 1.09 1.16 1.11 1.12 1.17 1.24 1.16 1.18 1.14 1.04
1.36 1.31 1.32 1.34 1.33 1.33 1.30 1.25 1.11 1.00 1.14 1.20 1.21 1.21 1.18 1.28 1.36 1.39 1.41 1.39 1.36 1.40 1.45 1.51 1.59 1.73 1.68 1.57 1.50 1.40 1.33 1.30 1.29 1.25 1.24 1.19 1.17 1.21 1.19 1.17 1.19 1.17 1.09
1.29 1.34 1.38 1.40 1.36 1.39 1.38 1.27 1.19 1.10 1.02 1.10 1.21 1.26 1.26 1.29 1.39 1.41 1.39 1.37 1.33 1.40 1.48 1.61 1.72 1.73 1.67 1.59 1.54 1.38 1.29 1.26 1.30 1.38 1.35 1.31 1.29 1.29 1.29 1.29 1.24 1.18 1.17
1.27 1.33 1.40 1.44 1.42 1.44 1.38 1.29 1.30 1.20 1.10 1.06 1.18 1.25 1.26 1.29 1.32 1.34 1.37 1.36 1.34 1.40 1.52 1.78 1.84 1.75 1.68 1.64 1.53 1.36 1.21 1.21 1.36 1.38 1.36 1.38 1.35 1.35 1.37 1.29 1.12 1.02 0.90
1.16 1.28 1.40 1.46 1.47 1.41 1.42 1.45 1.42 1.39 1.28 1.21 1.18 1.23 1.25 1.27 1.32 1.34 1.32 1.34 1.31 1.42 1.63 1.79 1.81 1.74 1.72 1.68 1.57 1.40 1.19 1.20 1.27 1.30 1.26 1.30 1.35 1.31 1.31 1.23 1.04 0.82 0.72
1.20 1.33 1.42 1.52 1.52 1.53 1.51 1.57 1.57 1.51 1.47 1.39 1.25 1.28 1.28 1.29 1.33 1.34 1.36 1.40 1.41 1.62 1.71 1.66 1.75 1.75 1.72 1.62 1.57 1.40 1.27 1.27 1.24 1.23 1.21 1.24 1.23 1.20 1.08 0.98 0.92 0.81 0.68
1.34 1.40 1.48 1.55 1.47 1.46 1.44 1.52 1.60 1.65 1.68 1.54 1.48 1.38 1.33 1.38 1.42 1.36 1.40 1.47 1.74 1.77 1.62 1.76 1.78 1.68 1.60 1.58 1.50 1.41 1.33 1.28 1.25 1.20 1.09 1.12 1.08 0.97 0.90 0.85 0.82 0.80 0.81
1.33 1.41 1.51 1.64 1.61 1.63 1.57 1.59 1.43 1.58 1.78 1.76 1.69 1.59 1.51 1.55 1.41 1.53 1.65 1.85 1.99 1.80 1.88 1.80 1.68 1.60 1.50 1.47 1.37 1.32 1.28 1.25 1.22 1.05 1.06 1.06 0.99 0.87 0.84 0.78 0.73 0.75 0.75
1.13 1.34 1.42 1.50 1.57 1.61 1.71 1.61 1.61 1.50 1.26 1.41 1.40 1.47 1.68 1.61 1.48 1.61 1.77 1.90 1.93 1.97 1.81 1.82 1.67 1.52 1.42 1.33 1.35 1.24 1.21 1.21 1.11 1.06 1.04 1.00 0.88 0.81 0.77 0.76 0.70 0.68 0.65
1.04 1.07 1.15 1.24 1.33 1.50 1.64 1.64 1.72 1.75 1.73 1.67 1.64 1.64 1.83 1.69 1.73 1.93 2.04 2.06 1.81 1.96 1.70 1.63 1.50 1.38 1.26 1.26 1.16 1.12 1.11 1.12 1.06 1.02 0.94 0.82 0.78 0.77 0.73 0.75 0.69 0.64 0.53
1.02 1.04 1.02 1.09 1.21 1.36 1.44 1.45 1.66 1.75 1.80 1.97 2.07 2.00 1.88 1.97 2.02 1.88 1.80 1.74 1.79 1.83 1.66 1.44 1.33 1.25 1.17 1.02 1.02 1.03 1.04 1.00 0.97 0.87 0.83 0.76 0.74 0.72 0.71 0.67 0.63 0.54 0.45
0.93 1.06 1.13 1.13 1.15 1.19 1.27 1.33 1.36 1.60 1.84 1.90 1.94 1.99 1.88 1.80 1.76 1.76 1.61 1.62 1.70 1.71 1.47 1.38 1.26 1.18 1.14 1.12 1.01 0.99 0.94 0.92 0.88 0.81 0.77 0.74 0.70 0.68 0.64 0.57 0.52 0.45 0.35
1.01 1.03 1.01 1.05 1.17 1.24 1.33 1.46 1.51 1.47 1.55 1.56 1.67 1.69 1.65 1.53 1.68 1.54 1.52 1.60 1.52 1.59 1.46 1.35 1.23 1.20 1.13 1.03 0.97 0.92 0.89 0.84 0.80 0.77 0.72 0.69 0.65 0.61 0.52 0.46 0.41 0.33 0.30
1.08 1.13 1.21 1.24 1.28 1.38 1.40 1.46 1.57 1.60 1.61 1.56 1.63 1.67 1.64 1.59 1.58 1.57 1.52 1.52 1.57 1.50 1.44 1.32 1.25 1.09 1.04 1.00 0.92 0.91 0.83 0.77 0.74 0.71 0.67 0.62 0.55 0.47 0.42 0.38 0.33 0.31 0.27
1.23 1.26 1.23 1.26 1.36 1.44 1.57 1.67 1.74 1.71 1.66 1.51 1.46 1.51 1.56 1.44 1.42 1.36 1.54 1.67 1.58 1.42 1.25 1.12 1.06 1.01 0.96 0.95 0.91 0.81 0.74 0.69 0.64 0.62 0.57 0.50 0.43 0.40 0.34 0.32 0.31 0.27 0.26
1.29 1.28 1.27 1.23 1.28 1.43 1.46 1.43 1.54 1.37 1.49 1.40 1.37 1.47 1.51 1.44 1.39 1.45 1.46 1.35 1.21 1.07 0.99 0.97 0.98 0.98 0.96 0.90 0.83 0.74 0.68 0.62 0.59 0.53 0.49 0.42 0.37 0.33 0.34 0.34 0.30 0.27 0.27
1.19 1.26 1.32 1.27 1.34 1.40 1.36 1.38 1.32 1.39 1.30 1.34 1.48 1.51 1.51 1.50 1.38 1.24 1.19 1.11 1.04 0.99 0.99 1.00 0.94 0.91 0.86 0.82 0.74 0.70 0.66 0.60 0.56 0.50 0.42 0.36 0.35 0.34 0.34 0.33 0.30 0.27 0.26
1.33 1.31 1.24 1.20 1.30 1.36 1.39 1.34 1.36 1.40 1.43 1.44 1.35 1.29 1.27 1.17 1.20 1.13 1.06 1.01 0.99 1.02 1.05 1.01 0.95 0.90 0.84 0.80 0.76 0.69 0.59 0.52 0.49 0.46 0.39 0.35 0.34 0.34 0.34 0.31 0.28 0.25 0.26
1.30 1.37 1.37 1.37 1.38 1.32 1.28 1.27 1.28 1.26 1.21 1.19 1.20 1.17 1.18 1.15 1.12 1.07 1.07 1.12 1.15 1.10 1.05 1.00 0.96 0.91 0.88 0.81 0.73 0.66 0.61 0.54 0.48 0.43 0.39 0.35 0.32 0.33 0.31 0.27 0.24 0.25 0.26
1.27 1.26 1.29 1.34 1.39 1.39 1.36 1.34 1.24 1.30 1.30 1.30 1.25 1.22 1.20 1.21 1.18 1.18 1.21 1.23 1.21 1.11 1.05 1.04 0.99 0.94 0.83 0.78 0.74 0.66 0.59 0.48 0.42 0.38 0.36 0.34 0.31 0.29 0.26 0.24 0.24 0.24 0.26
1.19 1.25 1.31 1.31 1.30 1.33 1.34 1.33 1.34 1.38 1.40 1.40 1.36 1.39 1.38 1.37 1.31 1.29 1.27 1.22 1.16 1.11 1.08 1.02 0.94 0.90 0.87 0.82 0.72 0.64 0.56 0.52 0.46 0.40 0.35 0.31 0.28 0.25 0.23 0.23 0.24 0.25 0.26
Wind_Speed
25 24 24 25 26 27 27 26 25 24 23 24 24 21 19 18 15 14 12 10 9 9 9 10 11 11 12 11 11 11 11 12 12 14 15 14 14 16 15 17 18 19 20
26 25 25 25 26 26 27 28 27 25 25 26 26 24 22 20 18 16 15 13 12 12 12 12 13 13 13 13 12 12 13 13 14 15 16 15 16 17 18 18 19 20 21
27 27 26 26 26 26 26 28 28 27 27 28 28 27 24 22 20 18 17 16 15 14 15 15 15 15 15 14 14 14 15 15 16 17 17 18 19 19 20 21 22 22 24
29 29 28 27 27 26 26 27 29 29 28 30 30 29 27 24 23 21 19 18 17 17 17 17 17 17 16 16 16 17 17 17 18 19 19 20 21 22 23 25 26 26 26
29 29 29 28 27 27 26 26 28 29 30 31 31 31 29 27 25 23 22 20 20 19 19 20 20 19 19 19 19 19 19 20 20 20 21 22 23 25 26 26 26 25 28
29 30 30 29 28 27 27 27 28 30 31 31 32 32 31 29 28 27 25 23 23 22 22 22 22 21 21 20 21 21 22 22 22 22 22 24 25 25 26 25 25 27 27
33 31 30 30 29 28 27 27 29 30 32 32 33 33 34 33 31 30 29 26 25 25 24 24 23 23 22 22 22 23 23 24 23 24 24 25 25 26 25 25 26 27 28
33 32 31 30 31 30 30 30 30 31 33 33 34 35 35 34 34 33 32 30 28 27 26 25 25 24 23 23 23 24 24 24 24 24 26 25 26 26 26 27 27 27 28
33 33 33 32 32 32 32 33 33 33 34 35 35 35 36 36 36 36 34 33 31 29 28 27 25 25 24 24 24 24 24 24 24 25 25 25 26 26 26 26 26 27 28
33 33 36 35 33 34 34 34 35 35 35 36 37 37 38 38 37 37 37 35 33 31 29 27 26 25 24 24 25 25 24 24 23 24 25 25 25 25 24 25 26 27 27
32 33 35 36 36 36 34 34 35 36 37 37 38 39 40 40 40 40 39 36 34 32 30 27 27 25 24 25 25 25 24 22 22 23 23 23 23 23 23 24 25 25 24
30 32 34 37 36 35 36 35 35 35 36 37 39 40 41 42 42 42 42 40 37 33 30 28 27 25 24 24 24 24 22 22 22 22 22 22 21 22 22 23 23 23 24
29 31 32 35 36 37 37 36 34 35 35 40 40 39 41 42 43 43 43 41 40 34 31 28 26 23 23 23 23 22 21 22 21 21 21 20 20 20 21 21 22 22 24
31 33 34 36 38 40 40 42 41 42 40 41 39 40 39 40 43 45 45 44 39 33 27 25 24 22 22 22 22 21 21 21 20 19 20 19 19 19 20 20 21 22 24
29 32 35 37 39 40 40 42 42 45 44 42 40 40 40 40 40 41 43 44 34 27 25 22 21 21 21 20 18 18 18 18 19 19 18 17 18 19 19 20 21 22 23
30 32 34 37 38 41 42 43 44 45 44 44 42 41 38 36 32 24 26 13 26 27 21 19 21 21 20 19 18 17 18 18 17 17 17 17 18 19 19 19 20 21 23
34 36 37 38 40 40 42 42 41 42 43 42 40 38 36 36 35 33 42 27 24 21 19 19 20 20 20 19 18 18 18 17 17 17 17 17 17 18 18 18 19 20 21
29 31 33 35 37 40 42 42 42 41 39 39 40 39 42 35 34 29 26 26 25 24 19 21 20 20 19 18 18 17 17 17 17 16 16 16 16 16 17 17 17 18 20
25 26 26 27 31 34 37 41 43 41 39 38 37 37 36 34 34 32 31 28 24 21 20 20 20 18 17 17 17 17 17 16 15 15 16 16 15 15 15 15 15 17 18
18 17 18 20 23 25 28 31 34 38 37 37 31 36 36 31 25 21 24 23 21 19 19 18 18 17 17 17 17 16 15 15 15 15 15 15 15 15 14 14 15 16 17
13 12 11 12 11 12 13 13 17 26 29 28 24 22 22 21 19 18 19 19 19 19 18 17 17 17 17 16 16 15 15 16 16 15 15 15 14 14 14 14 14 15 17
9 9 9 7 5 4 4 5 5 10 11 16 17 18 19 19 17 16 16 17 17 17 18 18 17 17 16 16 15 16 17 17 16 15 15 15 14 14 13 14 14 15 15
7 6 5 4 3 3 4 5 7 8 10 12 14 16 16 16 18 17 16 16 16 16 17 17 17 16 15 15 16 16 16 16 16 15 15 15 14 13 14 14 14 14 14
8 8 6 5 4 5 4 5 6 8 10 12 13 14 16 18 18 19 18 18 17 16 17 17 16 15 15 16 16 16 16 16 16 16 15 14 14 14 14 14 14 14 14
11 11 11 10 10 9 9 9 9 12 13 14 15 14 15 17 18 19 19 20 19 17 17 18 18 17 16 17 17 16 15 15 15 15 14 14 14 15 15 14 14 13 13
12 13 13 14 14 13 13 13 14 15 15 16 18 19 19 20 21 21 21 20 19 19 19 19 20 19 17 16 16 15 14 14 14 14 14 15 15 16 15 15 14 13 13
Wind_Direction
228 229 230 230 232 233 234 234 234 234 231 225 220 221 221 224 227 232 237 247 259 272 285 292 302 310 314 313 310 311 313 312 313 311 311 308 304 305 300 299 294 290 289
229 230 232 232 233 234 234 233 233 233 230 224 220 222 223 226 229 233 238 248 258 268 279 289 293 300 307 306 304 304 307 309 309 309 308 306 306 303 301 299 300 293 292
230 231 233 234 234 235 236 233 231 231 228 223 223 223 225 227 230 236 242 249 258 268 277 283 290 290 294 297 298 298 301 304 304 307 306 303 305 302 302 300 298 296 294
231 232 233 234 235 236 236 234 229 228 227 223 224 224 227 230 233 239 243 250 258 268 276 283 286 285 286 291 295 294 297 299 302 304 304 304 304 303 301 301 297 296 295
232 233 233 234 236 237 236 233 229 227 227 226 226 227 229 232 236 240 245 252 259 268 274 281 283 284 284 287 291 292 293 295 299 300 301 302 304 303 302 301 298 297 297
233 233 234 234 235 235 235 233 231 229 228 228 228 229 231 235 239 242 248 254 261 267 274 278 280 281 285 286 287 289 290 291 294 296 299 300 302 303 303 300 299 302 300
236 233 233 233 234 235 235 234 233 232 231 231 232 233 235 238 240 244 250 256 261 267 271 275 277 279 284 287 288 287 288 289 291 292 297 298 302 303 304 301 300 300 298
231 232 233 235 236 237 237 237 237 236 234 235 236 237 238 240 242 246 251 256 261 265 269 272 274 276 280 284 287 287 286 288 288 289 295 297 301 302 300 302 303 301 301
236 236 235 236 237 238 238 239 239 238 238 238 239 239 241 242 244 248 251 255 258 261 266 269 271 274 279 282 285 285 287 288 288 290 293 294 300 299 300 303 303 303 304
240 238 237 237 238 240 241 241 241 240 241 241 242 243 243 245 246 248 249 254 256 259 262 265 266 270 276 280 283 284 285 286 285 290 292 295 297 299 299 301 305 306 307
242 240 239 237 240 242 243 244 244 243 243 243 244 245 246 246 249 248 248 251 253 255 257 260 267 267 274 280 282 282 283 284 287 289 291 294 297 299 302 303 305 307 308
243 244 241 239 241 243 244 245 246 245 245 246 247 247 247 249 249 248 247 247 247 250 251 259 263 266 273 278 281 282 280 281 286 288 291 293 296 299 303 306 307 308 309
247 246 242 241 245 244 248 245 241 248 248 251 248 249 250 250 249 248 246 246 244 242 246 250 261 261 271 277 281 279 278 279 282 286 289 292 295 300 304 308 310 310 312
250 248 248 248 249 248 249 244 253 250 254 257 250 252 251 251 248 246 243 239 241 231 238 244 256 261 270 278 279 273 275 276 279 284 287 290 294 299 303 307 311 313 314
256 254 253 253 252 251 250 250 252 253 255 254 254 252 253 253 250 249 247 233 229 228 231 240 249 261 270 273 275 271 273 275 278 283 283 288 293 298 302 307 311 314 316
263 262 260 258 256 254 253 255 256 253 252 251 250 248 249 245 237 250 239 278 231 231 234 240 250 262 267 267 270 270 272 275 277 279 282 288 293 296 301 307 311 314 318
268 267 265 262 258 256 255 254 254 255 250 247 245 241 239 242 245 249 253 269 241 233 234 241 255 261 264 262 263 267 270 272 275 278 281 288 292 296 300 306 312 316 320
272 270 268 264 260 258 255 252 250 248 244 241 243 244 243 258 247 254 258 245 232 234 238 246 254 258 256 258 262 263 267 272 272 276 281 288 292 296 300 306 312 318 322
279 276 273 271 267 263 257 253 248 242 239 241 245 251 244 243 245 251 255 230 226 233 239 246 252 250 252 255 257 262 265 265 268 275 282 287 290 294 300 305 313 319 325
280 281 280 278 276 271 266 254 238 233 238 241 248 246 250 244 233 227 216 214 225 235 241 243 248 249 250 251 256 257 259 262 269 275 279 283 287 292 297 304 311 319 325
279 279 290 295 279 270 256 252 229 242 237 237 238 232 212 204 205 205 205 219 231 235 237 245 249 248 248 250 252 252 256 264 270 273 275 279 283 288 293 300 310 316 324
278 277 277 289 286 262 235 220 190 182 177 181 188 188 195 199 201 211 221 224 228 233 241 244 243 244 247 246 247 253 261 265 267 268 271 275 280 283 288 297 306 313 321
266 273 276 272 256 235 218 206 205 202 192 190 192 197 207 216 218 219 222 224 230 238 240 239 240 239 241 245 251 258 263 265 264 265 268 272 275 279 285 293 300 307 315
258 261 251 244 240 231 214 200 198 198 202 207 215 225 227 223 221 221 224 226 232 237 239 238 236 238 244 251 254 259 264 266 264 264 266 268 271 276 284 291 294 298 308
255 256 252 250 250 255 246 238 240 250 242 226 230 233 229 226 225 227 227 230 233 238 238 239 241 245 252 253 253 258 265 262 263 262 263 265 270 275 282 286 288 292 299
255 252 251 252 251 247 247 248 246 243 241 238 246 241 235 229 235 234 230 232 234 239 242 243 246 247 249 249 253 255 258 259 262 261 263 266 270 275 278 280 281 287 292